User: anonymous   Login
Location: Caltech
(34.1382°N, 118.1253°W)
Time: 04:31:30
(UTC-07:00)
Language:

Meteor 2-4 Rocket - Orbit

View from above orbital plane
View from above orbital plane
View from above satellite
View from above satellite

Ground track
Ground track

The orbit data is extracted from the following two-line orbital elements,

1 11289U 79021B   15209.30268572 -.00000079  00000-0 -49395-4 0  9992
2 11289 081.2474 117.1846 0076321 031.7211 328.8525 14.11507987873511
Epoch (UTC): 28 July 2015 07:15:52
Eccentricity: 0.0076321
inclination: 81.2474°
perigee height: 799 km
apogee height: 909 km
right ascension of ascending node: 117.1846°
argument of perigee: 31.7211°
revolutions per day: 14.11507987
mean anomaly at epoch: 328.8525°
orbit number at epoch: 87351

The dashed part of the orbit path shows where the satellite is in the earth's shadow,  

DLR